Location: Chollas View
(32.7131°N, 117.0911°W)
Time: 19:44:36
(UTC+00:00)

Daily predictions for brighter satellites

Satellite Brightness Start Highest point End
(mag) Time Altitude Azimuth Time Altitude Azimuth Time Altitude Azimuth
H-2A R/B 4.3 12:03:23 10° SSE 12:04:15 16° SSE 12:04:15 16° SSE
ATLAS 2AS CENTAUR R/B 4.4 12:05:18 10° S 12:12:20 38° ESE 12:19:28 10° NE
Delta 2 Rocket 4.2 12:16:38 51° NE 12:16:38 51° NE 12:20:13 10° E
USA 234 3.4 12:13:44 10° NE 12:20:16 71° SE 12:25:57 14° SSW
SL-16 R/B 2.1 12:28:21 43° NNW 12:30:18 87° WSW 12:35:58 10° SSE
SL-8 R/B 4.3 12:32:33 42° N 12:33:35 50° NE 12:38:16 10° ESE
ADEOS 3.4 12:28:38 10° N 12:33:51 78° WNW 12:39:04 10° SSW
Cosmos 1745 Rocket 3.9 12:27:56 10° SSW 12:34:07 71° W 12:40:25 10° N
ASTRO E2 2.9 12:36:31 61° S 12:36:33 61° S 12:40:28 10° E
Cosmos 2151 2.8 12:36:44 10° S 12:40:55 88° ESE 12:45:08 10° N
ERS-2 2.2 12:40:37 10° SSE 12:44:13 73° ENE 12:45:29 38° N
SL-4 R/B 3.9 12:49:34 17° N 12:49:34 17° N 12:50:55 10° NNE
BREEZE-M DEB (TANK) 2.6 12:47:37 38° SSW 12:48:29 59° SE 12:53:31 10° NE
OAO 3 Rocket 3.1 12:48:32 48° WNW 12:49:42 69° N 12:54:25 10° E
Cosmos 1689 Rocket 4.4 12:48:45 10° SE 12:51:04 23° ENE 12:53:24 10° NNE
Cosmos 1777 Rocket 4.0 12:46:31 10° SSW 12:51:36 56° WNW 12:56:43 10° N
Cosmos 1766 Rocket 4.3 12:47:33 10° S 12:51:54 55° E 12:56:17 10° NNE
SJ 16-02 2.3 12:51:14 10° S 12:55:28 49° ESE 12:59:44 10° NNE
COSMO-SKYMED 1 3.3 12:51:53 10° SSE 12:56:06 54° ENE 13:00:19 10° N
Lacrosse 5 2.7 12:51:24 10° SSW 12:56:18 52° SE 13:01:13 10° NE
CZ-4B R/B 1.1 12:53:59 10° S 12:57:11 69° W 12:57:22 66° WNW
BREEZE M DEB (TANK) 4.3 12:39:13 10° SW 12:57:29 68° SE 13:01:51 10° ENE
Meteor PRIRODA 4.0 12:53:51 10° NNE 12:57:33 65° E 13:01:15 10° S
METEOR-M 4.2 12:52:49 10° N 12:58:00 52° WNW 13:03:09 10° SSW
Cosmos 1709 Rocket 3.9 12:53:46 10° S 13:00:06 79° W 13:06:30 10° N
Cosmos 1606 2.6 12:57:13 11° N 13:00:52 85° E 13:04:38 10° S
BREEZE-M DEB (TANK) 4.1 13:02:40 19° N 13:02:40 19° N 13:04:30 10° NNE
Meteor 1-31 Rocket 3.1 13:00:04 10° N 13:03:41 39° WNW 13:07:14 10° SW
Cosmos 389 Rocket 2.3 13:02:33 32° NNW 13:03:59 66° W 13:07:25 10° S
Cosmos 2263 Rocket 2.2 12:59:00 10° SSW 13:04:32 58° WNW 13:10:08 10° NNE
CZ-4B R/B 3.0 13:08:19 10° N 13:12:48 68° WNW 13:17:10 10° SSW
PSLV R/B 4.3 13:11:35 10° SSE 13:15:43 67° ENE 13:19:50 10° N
Cosmos 1441 Rocket 3.6 13:13:37 10° SSW 13:17:12 38° W 13:20:46 10° N
GPS 2-04 Rocket1 2.9 13:14:43 17° WSW 13:17:32 62° SSE 13:21:11 10° ENE
ALOS 3.5 13:16:23 10° NNW 13:22:34 13° WSW 13:23:18 10° WSW
SKYMED 3 4.5 13:15:47 10° S 13:20:06 76° WSW 13:24:27 10° NNW
Cosmos 1603 4.1 13:19:05 10° NNW 13:24:41 66° ENE 13:30:15 10° SSE
OAO 2 Rocket 3.4 13:21:31 13° WSW 13:26:05 78° SSE 13:31:17 10° ENE
Atlas Centaur 2 3.1 13:21:27 10° SW 13:26:41 36° SSE 13:30:54 10° E
FALCON 9 DEB 4.2 13:24:16 10° SSW 13:27:17 43° SE 13:30:22 10° ENE
MOS 1 Rocket 4.3 13:25:18 10° SSE 13:29:38 48° ENE 13:34:15 10° N
Cosmos 1184 Rocket 2.8 13:28:07 10° SSW 13:31:19 52° W 13:34:32 10° N
FALCON 9 DEB 3.6 13:29:03 10° SSW 13:32:10 56° SE 13:35:19 10° NE
Cosmos 1943 3.4 13:31:28 10° NNW 13:37:11 75° ENE 13:42:51 10° SSE
ASTRO F (AKARI) 4.4 13:34:23 10° N 13:37:22 47° WNW 13:40:22 10° SSW
Cosmos 2184 Rocket 4.3 13:32:01 10° S 13:38:14 74° E 13:44:33 10° N
NOSS 3-4 (A) 3.8 13:38:15 10° WSW 13:43:39 38° NW 13:49:19 10° NNE
NOSS 3-4 (C) 3.8 13:38:21 10° WSW 13:43:46 38° NW 13:49:28 10° NNE
SKYMED 2 4.1 13:40:09 10° SSW 13:44:09 37° W 13:48:11 10° NNW
SWAS 4.4 13:41:23 10° NNW 13:45:38 68° WSW 13:49:50 10° SSE
Envisat 3.0 13:41:53 10° NNE 13:46:59 89° WNW 13:52:04 10° SSW
FALCON 9 DEB 2.9 13:45:40 10° SW 13:48:50 86° SE 13:52:03 10° NE
NOSS 3-2 (C) 4.3 13:41:22 10° NNW 13:49:23 90° SW 13:58:09 10° SSE
Meteor 1-4 Rocket 2.3 13:46:31 10° N 13:49:58 80° W 13:53:23 10° S
BREEZE-M (TANK) 4.2 13:36:16 10° SW 13:51:10 71° SE 13:54:54 10° ENE
Cosmos 1862 4.1 13:48:54 10° S 13:52:51 58° E 13:56:50 10° NNE
Cosmos 2084 4.0 13:48:25 10° NNW 13:52:53 64° ENE 13:57:20 10° SE
USA 276 2.7 13:50:36 10° WNW 13:53:35 42° SW 13:56:35 10° SSE
Cosmos 1937 Rocket 4.0 13:48:46 10° S 13:53:49 64° ESE 13:58:55 10° NNE
Cosmos 1515 Rocket 3.9 13:50:40 10° N 13:55:08 74° E 13:59:35 10° S
H-2A R/B 2.2 13:52:05 10° N 13:55:55 71° WNW 13:59:42 10° SSW
Delta 2 Rocket 3.4 13:53:47 10° WNW 13:58:26 88° SSW 14:02:29 10° ESE
Okean O Rocket 2.3 13:54:35 10° NNE 13:58:58 60° E 14:03:22 10° S
H-2A R/B 3.5 13:56:40 10° N 14:00:08 31° WNW 14:03:34 10° SW
USA 234 4.0 13:57:18 10° NNE 14:02:51 31° NW 14:08:24 10° W
ATLAS 2AS CENTAUR R/B 3.4 13:55:43 10° SW 14:03:11 45° NW 14:10:43 10° NNE
